| time (UTC) | temp F | wind direction | speed MPH | gust MPH | rain 1hr in | rain 24hr in | rain mn in | humidity % | barometer mb |
| 20260505225920 | 82 | 201 | 4.0 | 10.0 | 0.00 | 0.00 | 0.00 | 75 | 1006.4 |
| 20260505225143 | 82 | 194 | 4.0 | 10.0 | 0.00 | 0.00 | 0.00 | 74 | 1006.5 |
| 20260505224643 | 82 | 178 | 3.0 | 10.0 | 0.00 | 0.00 | 0.00 | 74 | 1006.5 |
| 20260505224144 | 82 | 174 | 4.0 | 10.0 | 0.00 | 0.00 | 0.00 | 75 | 1006.6 |
| 20260505223643 | 82 | 201 | 4.0 | 11.0 | 0.00 | 0.00 | 0.00 | 74 | 1006.5 |
| 20260505223143 | 83 | 188 | 4.0 | 11.0 | 0.00 | 0.00 | 0.00 | 74 | 1006.5 |
| 20260505222641 | 83 | 167 | 5.0 | 11.0 | 0.00 | 0.00 | 0.00 | 74 | 1006.5 |
| 20260505222136 | 83 | 175 | 5.0 | 11.0 | 0.00 | 0.00 | 0.00 | 73 | 1006.5 |
| 20260505221629 | 83 | 185 | 4.0 | 9.0 | 0.00 | 0.00 | 0.00 | 72 | 1006.5 |
| 20260505221128 | 83 | 209 | 4.0 | 10.0 | 0.00 | 0.00 | 0.00 | 73 | 1006.7 |
| 20260505220628 | 83 | 220 | 4.0 | 10.0 | 0.00 | 0.00 | 0.00 | 72 | 1006.7 |
| 20260505220129 | 83 | 176 | 4.0 | 11.0 | 0.00 | 0.00 | 0.00 | 74 | 1006.7 |
| 20260505215628 | 83 | 0 | 5.0 | 11.0 | 0.00 | 0.00 | 0.00 | 74 | 1006.7 |
| 20260505215127 | 83 | 193 | 5.0 | 11.0 | 0.00 | 0.00 | 0.00 | 73 | 1006.7 |
| 20260505214849 | 83 | 238 | 5.0 | 14.0 | 0.00 | 0.00 | 0.00 | 73 | 1006.7 |
| 20260505214126 | 83 | 175 | 5.0 | 14.0 | 0.00 | 0.00 | 0.00 | 73 | 1006.8 |
| 20260505213624 | 83 | 223 | 4.0 | 10.0 | 0.00 | 0.00 | 0.00 | 73 | 1007.0 |
| 20260505213126 | 83 | 233 | 4.0 | 10.0 | 0.00 | 0.00 | 0.00 | 73 | 1007.0 |
| 20260505212624 | 84 | 187 | 3.0 | 9.0 | 0.00 | 0.00 | 0.00 | 73 | 1007.1 |
| 20260505212124 | 84 | 212 | 3.0 | 8.0 | 0.00 | 0.00 | 0.00 | 72 | 1007.2 |
| 20260505211624 | 83 | 203 | 4.0 | 10.0 | 0.00 | 0.00 | 0.00 | 72 | 1007.1 |
| 20260505211124 | 83 | 196 | 5.0 | 12.0 | 0.00 | 0.00 | 0.00 | 71 | 1007.2 |
| 20260505210627 | 83 | 217 | 5.0 | 16.0 | 0.00 | 0.00 | 0.00 | 72 | 1007.2 |
| 20260505210122 | 83 | 194 | 5.0 | 16.0 | 0.00 | 0.00 | 0.00 | 71 | 1007.3 |
| 20260505205622 | 84 | 161 | 5.0 | 13.0 | 0.00 | 0.00 | 0.00 | 71 | 1007.4 |
| 20260505205122 | 83 | 232 | 5.0 | 14.0 | 0.00 | 0.00 | 0.00 | 72 | 1007.5 |
| 20260505204624 | 83 | 201 | 5.0 | 14.0 | 0.00 | 0.00 | 0.00 | 72 | 1007.5 |
| 20260505204122 | 83 | 249 | 4.0 | 11.0 | 0.00 | 0.00 | 0.00 | 72 | 1007.5 |
| 20260505203624 | 84 | 197 | 4.0 | 11.0 | 0.00 | 0.00 | 0.00 | 73 | 1007.8 |
| 20260505203122 | 83 | 198 | 4.0 | 12.0 | 0.00 | 0.00 | 0.00 | 72 | 1007.8 |
| 20260505202623 | 83 | 198 | 5.0 | 12.0 | 0.00 | 0.00 | 0.00 | 73 | 1007.8 |
| 20260505202123 | 83 | 189 | 5.0 | 11.0 | 0.00 | 0.00 | 0.00 | 73 | 1007.9 |
| 20260505201852 | 83 | 209 | 4.0 | 8.0 | 0.00 | 0.00 | 0.00 | 74 | 1008.0 |
| 20260505201123 | 83 | 225 | 4.0 | 8.0 | 0.00 | 0.00 | 0.00 | 74 | 1008.0 |
| 20260505200614 | 83 | 201 | 4.0 | 9.0 | 0.00 | 0.00 | 0.00 | 73 | 1008.1 |
| 20260505200107 | 84 | 203 | 4.0 | 11.0 | 0.00 | 0.00 | 0.00 | 73 | 1008.1 |
| 20260505195559 | 84 | 211 | 3.0 | 11.0 | 0.00 | 0.00 | 0.00 | 73 | 1008.0 |
| 20260505195101 | 83 | 238 | 3.0 | 9.0 | 0.00 | 0.00 | 0.00 | 73 | 1008.0 |
| 20260505194559 | 83 | 175 | 4.0 | 9.0 | 0.00 | 0.00 | 0.00 | 73 | 1008.1 |
| 20260505194328 | 83 | 196 | 4.0 | 9.0 | 0.00 | 0.00 | 0.00 | 73 | 1008.3 |
| 20260505193600 | 82 | 190 | 4.0 | 12.0 | 0.00 | 0.00 | 0.00 | 74 | 1008.4 |
| 20260505193058 | 82 | 192 | 5.0 | 12.0 | 0.00 | 0.00 | 0.00 | 74 | 1008.5 |
| 20260505192559 | 83 | 223 | 5.0 | 11.0 | 0.00 | 0.00 | 0.00 | 74 | 1008.5 |
| 20260505192100 | 83 | 246 | 5.0 | 11.0 | 0.00 | 0.00 | 0.00 | 73 | 1008.5 |
| 20260505191600 | 83 | 218 | 5.0 | 10.0 | 0.00 | 0.00 | 0.00 | 74 | 1008.5 |
| 20260505191055 | 83 | 216 | 4.0 | 9.0 | 0.00 | 0.00 | 0.00 | 74 | 1008.5 |
| 20260505190554 | 82 | 215 | 3.0 | 9.0 | 0.00 | 0.00 | 0.00 | 74 | 1008.5 |
| 20260505190055 | 82 | 200 | 4.0 | 9.0 | 0.00 | 0.00 | 0.00 | 76 | 1008.6 |
| 20260505185553 | 82 | 219 | 4.0 | 11.0 | 0.00 | 0.00 | 0.00 | 76 | 1008.6 |
| 20260505185329 | 81 | 159 | 5.0 | 12.0 | 0.00 | 0.00 | 0.00 | 76 | 1008.6 |
| 20260505184553 | 81 | 188 | 4.0 | 12.0 | 0.00 | 0.00 | 0.00 | 76 | 1008.6 |
| 20260505184320 | 80 | 205 | 3.0 | 8.0 | 0.00 | 0.00 | 0.00 | 77 | 1008.7 |
| 20260505183554 | 80 | 201 | 4.0 | 9.0 | 0.00 | 0.00 | 0.00 | 77 | 1008.7 |
| 20260505183541 | 80 | 215 | 4.0 | 11.0 | 0.00 | 0.00 | 0.00 | 76 | 1008.8 |
| 20260505182555 | 81 | 221 | 4.0 | 11.0 | 0.00 | 0.00 | 0.00 | 76 | 1008.8 |
| 20260505182054 | 81 | 217 | 5.0 | 11.0 | 0.00 | 0.00 | 0.00 | 76 | 1008.9 |
| 20260505181555 | 81 | 194 | 5.0 | 13.0 | 0.00 | 0.00 | 0.00 | 76 | 1008.9 |
| 20260505181327 | 80 | 183 | 4.0 | 13.0 | 0.00 | 0.00 | 0.00 | 76 | 1008.9 |
| 20260505180555 | 80 | 202 | 3.0 | 8.0 | 0.00 | 0.00 | 0.00 | 77 | 1009.0 |
| 20260505180055 | 80 | 165 | 4.0 | 8.0 | 0.00 | 0.00 | 0.00 | 76 | 1009.0 |
| 20260505175549 | 80 | 205 | 4.0 | 8.0 | 0.00 | 0.00 | 0.00 | 77 | 1009.0 |
| 20260505175051 | 80 | 210 | 3.0 | 9.0 | 0.00 | 0.00 | 0.00 | 77 | 1009.1 |
| 20260505174550 | 80 | 221 | 4.0 | 9.0 | 0.00 | 0.00 | 0.00 | 77 | 1009.2 |
| 20260505174543 | 80 | 207 | 4.0 | 7.0 | 0.00 | 0.00 | 0.00 | 78 | 1009.1 |
| 20260505173546 | 80 | 236 | 3.0 | 7.0 | 0.00 | 0.00 | 0.00 | 78 | 1009.2 |
| 20260505173048 | 80 | 182 | 3.0 | 8.0 | 0.00 | 0.00 | 0.00 | 78 | 1009.3 |
| 20260505172545 | 80 | 202 | 4.0 | 10.0 | 0.00 | 0.00 | 0.00 | 78 | 1009.2 |
| 20260505172537 | 80 | 192 | 4.0 | 11.0 | 0.00 | 0.00 | 0.00 | 77 | 1009.2 |
| 20260505171546 | 80 | 224 | 4.0 | 11.0 | 0.00 | 0.00 | 0.00 | 77 | 1009.3 |
| 20260505171541 | 80 | 172 | 4.0 | 10.0 | 0.00 | 0.00 | 0.00 | 77 | 1009.3 |
| 20260505170542 | 80 | 205 | 3.0 | 7.0 | 0.00 | 0.00 | 0.00 | 78 | 1009.4 |
| 20260505170032 | 80 | 197 | 3.0 | 7.0 | 0.00 | 0.00 | 0.00 | 78 | 1009.4 |
| 20260505165528 | 80 | 189 | 3.0 | 5.0 | 0.00 | 0.00 | 0.00 | 78 | 1009.5 |
| 20260505165020 | 80 | 222 | 3.0 | 7.0 | 0.00 | 0.00 | 0.00 | 78 | 1009.4 |
| 20260505164739 | 80 | 253 | 4.0 | 11.0 | 0.00 | 0.00 | 0.00 | 78 | 1009.3 |
| 20260505164004 | 80 | 194 | 4.0 | 11.0 | 0.00 | 0.00 | 0.00 | 77 | 1009.3 |
| 20260505163458 | 79 | 196 | 3.0 | 9.0 | 0.00 | 0.00 | 0.00 | 78 | 1009.3 |
| 20260505162949 | 79 | 213 | 4.0 | 9.0 | 0.00 | 0.00 | 0.00 | 78 | 1009.2 |
| 20260505162441 | 79 | 254 | 4.0 | 9.0 | 0.00 | 0.00 | 0.00 | 78 | 1009.3 |
| 20260505161934 | 79 | 205 | 4.0 | 8.0 | 0.00 | 0.00 | 0.00 | 78 | 1009.3 |
| 20260505161424 | 79 | 179 | 4.0 | 10.0 | 0.00 | 0.00 | 0.00 | 78 | 1009.2 |
| 20260505160919 | 79 | 202 | 4.0 | 10.0 | 0.00 | 0.00 | 0.00 | 78 | 1009.3 |
| 20260505160413 | 79 | 236 | 4.0 | 8.0 | 0.00 | 0.00 | 0.00 | 78 | 1009.2 |
| 20260505160132 | 79 | 178 | 4.0 | 13.0 | 0.00 | 0.00 | 0.00 | 78 | 1009.2 |
| 20260505153328 | 78 | 232 | 4.0 | 8.0 | 0.00 | 0.00 | 0.00 | 79 | 1009.1 |
| 20260505152819 | 78 | 222 | 4.0 | 11.0 | 0.00 | 0.00 | 0.00 | 79 | 1009.1 |
| 20260505152529 | 78 | 220 | 4.0 | 11.0 | 0.00 | 0.00 | 0.00 | 79 | 1009.1 |
| 20260505151806 | 78 | 186 | 5.0 | 14.0 | 0.00 | 0.00 | 0.00 | 79 | 1009.0 |
| 20260505151258 | 78 | 193 | 4.0 | 14.0 | 0.00 | 0.00 | 0.00 | 79 | 1009.0 |
| 20260505150751 | 78 | 214 | 4.0 | 9.0 | 0.00 | 0.00 | 0.00 | 79 | 1009.0 |
| 20260505150244 | 78 | 209 | 4.0 | 9.0 | 0.00 | 0.00 | 0.00 | 79 | 1008.9 |
| 20260505140622 | 76 | 180 | 3.0 | 10.0 | 0.00 | 0.00 | 0.00 | 82 | 1009.0 |
| 20260505140117 | 76 | 202 | 4.0 | 10.0 | 0.00 | 0.00 | 0.00 | 82 | 1009.1 |
| 20260505124932 | 73 | 234 | 2.0 | 6.0 | 0.00 | 0.00 | 0.00 | 85 | 1008.8 |
| 20260505124427 | 73 | 195 | 2.0 | 5.0 | 0.00 | 0.00 | 0.00 | 86 | 1008.5 |
| 20260505123919 | 73 | 181 | 2.0 | 5.0 | 0.00 | 0.00 | 0.00 | 86 | 1008.6 |
| 20260505123411 | 73 | 193 | 2.0 | 5.0 | 0.00 | 0.00 | 0.00 | 86 | 1008.7 |
| 20260505122904 | 73 | 184 | 2.0 | 5.0 | 0.00 | 0.00 | 0.00 | 86 | 1008.5 |
| 20260505122624 | 73 | 172 | 2.0 | 8.0 | 0.00 | 0.00 | 0.00 | 86 | 1008.4 |
| 20260505121902 | 72 | 172 | 1.0 | 8.0 | 0.00 | 0.00 | 0.00 | 85 | 1008.4 |
| 20260505121402 | 72 | 173 | 2.0 | 8.0 | 0.00 | 0.00 | 0.00 | 85 | 1008.1 |
| 20260505120901 | 72 | 170 | 2.0 | 8.0 | 0.00 | 0.00 | 0.00 | 85 | 1007.9 |
| 20260505120402 | 72 | 174 | 2.0 | 5.0 | 0.00 | 0.00 | 0.00 | 85 | 1007.9 |
| 20260505115901 | 72 | 191 | 1.0 | 6.0 | 0.00 | 0.00 | 0.00 | 85 | 1008.0 |
| 20260505115401 | 72 | 192 | 1.0 | 6.0 | 0.00 | 0.00 | 0.00 | 85 | 1008.4 |
| 20260505114900 | 72 | 235 | 1.0 | 4.0 | 0.00 | 0.00 | 0.00 | 85 | 1008.5 |
| 20260505114400 | 72 | 244 | 1.0 | 4.0 | 0.00 | 0.00 | 0.00 | 85 | 1008.6 |
| 20260505113902 | 72 | 169 | 1.0 | 5.0 | 0.00 | 0.00 | 0.00 | 85 | 1008.4 |
| 20260505113359 | 72 | 169 | 1.0 | 5.0 | 0.00 | 0.00 | 0.00 | 85 | 1008.3 |
| 20260505112859 | 72 | 167 | 1.0 | 5.0 | 0.00 | 0.00 | 0.00 | 85 | 1008.3 |
| 20260505112359 | 72 | 196 | 1.0 | 3.0 | 0.00 | 0.00 | 0.00 | 85 | 1008.0 |
| 20260505111858 | 72 | 198 | 1.0 | 4.0 | 0.00 | 0.00 | 0.00 | 85 | 1008.1 |
| 20260505111352 | 72 | 202 | 1.0 | 5.0 | 0.00 | 0.00 | 0.00 | 85 | 1008.0 |
| 20260505110841 | 72 | 181 | 1.0 | 5.0 | 0.00 | 0.00 | 0.00 | 85 | 1008.3 |
| 20260505110341 | 72 | 196 | 1.0 | 3.0 | 0.00 | 0.00 | 0.00 | 85 | 1008.3 |
| 20260505101840 | 72 | 180 | 2.0 | 5.0 | 0.00 | 0.00 | 0.00 | 85 | 1008.1 |
| 20260505101611 | 72 | 205 | 2.0 | 6.0 | 0.00 | 0.00 | 0.00 | 85 | 1008.3 |
| 20260505100839 | 72 | 209 | 2.0 | 6.0 | 0.00 | 0.00 | 0.00 | 85 | 1008.5 |
| 20260505100339 | 72 | 194 | 2.0 | 4.0 | 0.00 | 0.00 | 0.00 | 85 | 1008.5 |
| 20260505095836 | 72 | 192 | 1.0 | 5.0 | 0.00 | 0.00 | 0.00 | 85 | 1008.5 |
| 20260505095605 | 72 | 190 | 1.0 | 5.0 | 0.00 | 0.00 | 0.00 | 85 | 1008.4 |
| 20260505094836 | 72 | 187 | 1.0 | 4.0 | 0.00 | 0.00 | 0.00 | 85 | 1008.1 |
| 20260505094337 | 72 | 191 | 1.0 | 4.0 | 0.00 | 0.00 | 0.00 | 85 | 1008.1 |
| 20260505093836 | 72 | 192 | 1.0 | 4.0 | 0.00 | 0.00 | 0.00 | 85 | 1008.3 |
| 20260505093338 | 72 | 200 | 1.0 | 3.0 | 0.00 | 0.00 | 0.00 | 85 | 1008.4 |
| 20260505093100 | 72 | 175 | 2.0 | 5.0 | 0.00 | 0.00 | 0.00 | 85 | 1008.4 |
| 20260505092330 | 72 | 174 | 2.0 | 5.0 | 0.00 | 0.00 | 0.00 | 84 | 1008.5 |
| 20260505091831 | 72 | 173 | 2.0 | 5.0 | 0.00 | 0.00 | 0.00 | 84 | 1008.7 |
| 20260505091331 | 72 | 188 | 2.0 | 6.0 | 0.00 | 0.00 | 0.00 | 84 | 1008.8 |
| 20260505090832 | 72 | 175 | 2.0 | 6.0 | 0.00 | 0.00 | 0.00 | 84 | 1008.6 |
| 20260505090333 | 72 | 176 | 2.0 | 5.0 | 0.00 | 0.00 | 0.00 | 84 | 1008.6 |
| 20260505085830 | 72 | 188 | 2.0 | 5.0 | 0.00 | 0.00 | 0.00 | 84 | 1008.6 |
| 20260505085332 | 71 | 196 | 2.0 | 4.0 | 0.00 | 0.00 | 0.00 | 84 | 1008.7 |
| 20260505084834 | 71 | 194 | 1.0 | 4.0 | 0.00 | 0.00 | 0.00 | 84 | 1008.8 |
| 20260505084334 | 71 | 194 | 1.0 | 4.0 | 0.00 | 0.00 | 0.00 | 84 | 1008.7 |
| 20260505083834 | 71 | 192 | 1.0 | 4.0 | 0.00 | 0.00 | 0.00 | 84 | 1008.7 |
| 20260505083333 | 71 | 193 | 1.0 | 4.0 | 0.00 | 0.00 | 0.00 | 85 | 1008.7 |
| 20260505082832 | 71 | 186 | 1.0 | 4.0 | 0.00 | 0.00 | 0.00 | 85 | 1008.6 |
| 20260505082332 | 71 | 183 | 1.0 | 4.0 | 0.00 | 0.00 | 0.00 | 85 | 1008.7 |
| 20260505081831 | 71 | 182 | 1.0 | 5.0 | 0.00 | 0.00 | 0.00 | 85 | 1008.7 |
| 20260505081332 | 71 | 192 | 1.0 | 5.0 | 0.00 | 0.00 | 0.00 | 84 | 1008.8 |
| 20260505080832 | 71 | 190 | 1.0 | 3.0 | 0.00 | 0.00 | 0.00 | 84 | 1008.9 |
| 20260505080600 | 71 | 192 | 1.0 | 4.0 | 0.00 | 0.00 | 0.00 | 84 | 1008.9 |
| 20260505075829 | 71 | 192 | 1.0 | 4.0 | 0.00 | 0.00 | 0.00 | 84 | 1008.9 |
| 20260505075328 | 71 | 190 | 1.0 | 5.0 | 0.00 | 0.00 | 0.00 | 84 | 1008.9 |
| 20260505075104 | 71 | 193 | 2.0 | 5.0 | 0.00 | 0.00 | 0.00 | 84 | 1009.0 |
| 20260505074326 | 71 | 170 | 2.0 | 5.0 | 0.00 | 0.00 | 0.00 | 83 | 1009.0 |
| 20260505073825 | 71 | 176 | 2.0 | 6.0 | 0.00 | 0.00 | 0.00 | 83 | 1009.0 |
| 20260505073323 | 71 | 187 | 2.0 | 6.0 | 0.00 | 0.00 | 0.00 | 83 | 1009.0 |
| 20260505072824 | 71 | 202 | 2.0 | 5.0 | 0.00 | 0.00 | 0.00 | 83 | 1009.0 |
| 20260505072326 | 71 | 177 | 3.0 | 6.0 | 0.00 | 0.00 | 0.00 | 83 | 1009.1 |
| 20260505071820 | 71 | 178 | 3.0 | 6.0 | 0.00 | 0.00 | 0.00 | 83 | 1009.2 |
| 20260505071319 | 71 | 217 | 2.0 | 5.0 | 0.00 | 0.00 | 0.00 | 83 | 1009.2 |
| 20260505070819 | 71 | 184 | 1.0 | 6.0 | 0.00 | 0.00 | 0.00 | 83 | 1009.4 |
| 20260505070244 | 71 | 207 | 1.0 | 6.0 | 0.00 | 0.00 | 0.00 | 83 | 1009.4 |
| 20260505065742 | 71 | 231 | 1.0 | 5.0 | 0.00 | 0.00 | 0.00 | 83 | 1009.5 |
| 20260505065239 | 71 | 215 | 2.0 | 5.0 | 0.00 | 0.00 | 0.00 | 83 | 1009.5 |
| 20260505065003 | 71 | 225 | 2.0 | 6.0 | 0.00 | 0.00 | 0.00 | 82 | 1009.5 |
| 20260505064238 | 71 | 201 | 2.0 | 6.0 | 0.00 | 0.00 | 0.00 | 82 | 1009.7 |
| 20260505064011 | 71 | 190 | 2.0 | 4.0 | 0.00 | 0.00 | 0.00 | 82 | 1009.8 |
| 20260505063507 | 71 | 196 | 2.0 | 5.0 | 0.00 | 0.00 | 0.00 | 82 | 1009.8 |
| 20260505062735 | 71 | 198 | 2.0 | 5.0 | 0.00 | 0.00 | 0.00 | 82 | 1009.8 |
| 20260505062236 | 71 | 199 | 2.0 | 5.0 | 0.00 | 0.00 | 0.00 | 82 | 1010.0 |
| 20260505061735 | 71 | 221 | 2.0 | 6.0 | 0.00 | 0.00 | 0.00 | 81 | 1010.2 |
| 20260505061233 | 71 | 202 | 2.0 | 7.0 | 0.00 | 0.00 | 0.00 | 81 | 1010.2 |
| 20260505060732 | 71 | 208 | 3.0 | 7.0 | 0.00 | 0.00 | 0.00 | 81 | 1010.1 |
| 20260505060234 | 71 | 169 | 3.0 | 8.0 | 0.00 | 0.00 | 0.00 | 81 | 1010.1 |
| 20260505055733 | 71 | 196 | 3.0 | 8.0 | 0.00 | 0.00 | 0.00 | 81 | 1010.1 |
| 20260505055233 | 71 | 225 | 2.0 | 7.0 | 0.00 | 0.00 | 0.00 | 80 | 1010.0 |
| 20260505054951 | 71 | 194 | 2.0 | 5.0 | 0.00 | 0.00 | 0.00 | 80 | 1010.0 |
| 20260505054454 | 71 | 174 | 2.0 | 5.0 | 0.00 | 0.00 | 0.00 | 80 | 1010.2 |
| 20260505053732 | 71 | 222 | 2.0 | 5.0 | 0.00 | 0.00 | 0.00 | 80 | 1010.3 |
| 20260505053229 | 71 | 202 | 2.0 | 6.0 | 0.00 | 0.00 | 0.00 | 80 | 1010.5 |
| 20260505052728 | 71 | 202 | 2.0 | 6.0 | 0.00 | 0.00 | 0.00 | 80 | 1010.5 |
| 20260505052227 | 71 | 206 | 2.0 | 5.0 | 0.00 | 0.00 | 0.00 | 80 | 1010.4 |
| 20260505051728 | 71 | 196 | 2.0 | 7.0 | 0.00 | 0.00 | 0.00 | 80 | 1010.5 |
| 20260505051221 | 71 | 210 | 2.0 | 7.0 | 0.00 | 0.00 | 0.00 | 80 | 1010.4 |
| 20260505050716 | 71 | 213 | 2.0 | 6.0 | 0.00 | 0.00 | 0.00 | 80 | 1010.5 |
| 20260505050211 | 71 | 169 | 2.0 | 6.0 | 0.00 | 0.00 | 0.00 | 79 | 1010.4 |
| 20260505041707 | 72 | 175 | 1.0 | 3.0 | 0.00 | 0.00 | 0.00 | 77 | 1010.7 |
| 20260505041206 | 72 | 175 | 1.0 | 5.0 | 0.00 | 0.00 | 0.00 | 77 | 1010.7 |
| 20260505040707 | 72 | 172 | 1.0 | 5.0 | 0.00 | 0.00 | 0.00 | 77 | 1010.7 |
| 20260505040430 | 72 | 177 | 1.0 | 5.0 | 0.00 | 0.00 | 0.00 | 77 | 1010.6 |
| 20260505035708 | 72 | 171 | 1.0 | 5.0 | 0.00 | 0.00 | 0.00 | 77 | 1010.7 |
| 20260505035433 | 72 | 162 | 1.0 | 4.0 | 0.00 | 0.00 | 0.00 | 77 | 1010.8 |
| 20260505034708 | 72 | 159 | 1.0 | 5.0 | 0.00 | 0.00 | 0.00 | 76 | 1010.8 |
| 20260505034203 | 72 | 186 | 1.0 | 5.0 | 0.00 | 0.00 | 0.00 | 76 | 1010.9 |
| 20260505033702 | 72 | 180 | 1.0 | 6.0 | 0.00 | 0.00 | 0.00 | 76 | 1011.0 |
| 20260505033206 | 72 | 179 | 1.0 | 6.0 | 0.00 | 0.00 | 0.00 | 76 | 1010.9 |
| 20260505032705 | 73 | 186 | 1.0 | 5.0 | 0.00 | 0.00 | 0.00 | 75 | 1010.9 |
| 20260505032202 | 73 | 191 | 1.0 | 4.0 | 0.00 | 0.00 | 0.00 | 75 | 1010.9 |
| 20260505031702 | 73 | 181 | 2.0 | 5.0 | 0.00 | 0.00 | 0.00 | 75 | 1010.9 |
| 20260505031202 | 73 | 178 | 2.0 | 6.0 | 0.00 | 0.00 | 0.00 | 74 | 1011.0 |
| 20260505030658 | 73 | 196 | 2.0 | 6.0 | 0.00 | 0.00 | 0.00 | 74 | 1010.9 |
| 20260505030158 | 73 | 176 | 2.0 | 6.0 | 0.00 | 0.00 | 0.00 | 74 | 1010.9 |
| 20260505025920 | 73 | 187 | 2.0 | 5.0 | 0.00 | 0.00 | 0.00 | 74 | 1010.9 |
| 20260505025154 | 74 | 207 | 2.0 | 7.0 | 0.00 | 0.00 | 0.00 | 74 | 1010.9 |
| 20260505024653 | 74 | 175 | 2.0 | 9.0 | 0.00 | 0.00 | 0.00 | 74 | 1010.9 |
| 20260505024151 | 74 | 172 | 3.0 | 11.0 | 0.00 | 0.00 | 0.00 | 74 | 1010.8 |
| 20260505023645 | 74 | 166 | 3.0 | 11.0 | 0.00 | 0.00 | 0.00 | 73 | 1010.8 |
| 20260505023138 | 74 | 178 | 2.0 | 7.0 | 0.00 | 0.00 | 0.00 | 73 | 1010.8 |
| 20260505022628 | 74 | 207 | 2.0 | 8.0 | 0.00 | 0.00 | 0.00 | 73 | 1010.7 |
| 20260505022121 | 74 | 209 | 2.0 | 6.0 | 0.00 | 0.00 | 0.00 | 73 | 1010.7 |
| 20260505021615 | 74 | 215 | 2.0 | 9.0 | 0.00 | 0.00 | 0.00 | 73 | 1010.7 |
| 20260505021109 | 74 | 188 | 3.0 | 9.0 | 0.00 | 0.00 | 0.00 | 73 | 1010.7 |
| 20260505020832 | 74 | 178 | 2.0 | 7.0 | 0.00 | 0.00 | 0.00 | 74 | 1010.6 |
| 20260505020330 | 74 | 138 | 2.0 | 6.0 | 0.00 | 0.00 | 0.00 | 74 | 1010.8 |
| 20260505015608 | 74 | 173 | 2.0 | 6.0 | 0.00 | 0.00 | 0.00 | 74 | 1010.7 |
| 20260505015107 | 73 | 244 | 3.0 | 8.0 | 0.00 | 0.00 | 0.00 | 74 | 1010.6 |
| 20260505014836 | 74 | 194 | 3.0 | 8.0 | 0.00 | 0.00 | 0.00 | 73 | 1010.4 |
| 20260505014108 | 74 | 221 | 3.0 | 7.0 | 0.00 | 0.00 | 0.00 | 73 | 1010.4 |
| 20260505013608 | 74 | 212 | 3.0 | 7.0 | 0.00 | 0.00 | 0.00 | 73 | 1010.4 |
| 20260505013107 | 74 | 201 | 3.0 | 9.0 | 0.00 | 0.00 | 0.00 | 72 | 1010.4 |
| 20260505012605 | 74 | 209 | 3.0 | 9.0 | 0.00 | 0.00 | 0.00 | 72 | 1010.5 |
| 20260505012106 | 74 | 192 | 3.0 | 8.0 | 0.00 | 0.00 | 0.00 | 72 | 1010.4 |
| 20260505011606 | 74 | 174 | 3.0 | 9.0 | 0.00 | 0.00 | 0.00 | 71 | 1010.5 |
| 20260505011104 | 75 | 189 | 4.0 | 9.0 | 0.00 | 0.00 | 0.00 | 71 | 1010.5 |
| 20260505010929 | 75 | 202 | 4.0 | 8.0 | 0.00 | 0.00 | 0.00 | 70 | 1010.4 |
| 20260505010857 | 75 | 202 | 4.0 | 11.0 | 0.00 | 0.00 | 0.00 | 70 | 1010.2 |
| 20260505005555 | 75 | 154 | 4.0 | 11.0 | 0.00 | 0.00 | 0.00 | 70 | 1010.3 |
| 20260505005049 | 75 | 242 | 4.0 | 10.0 | 0.00 | 0.00 | 0.00 | 70 | 1010.4 |
| 20260505004811 | 76 | 162 | 4.0 | 10.0 | 0.00 | 0.00 | 0.00 | 69 | 1010.3 |
| 20260505004541 | 76 | 186 | 4.0 | 10.0 | 0.00 | 0.00 | 0.00 | 69 | 1010.2 |
| 20260505004458 | 76 | 178 | 3.0 | 8.0 | 0.00 | 0.00 | 0.00 | 69 | 1010.2 |
| 20260505003022 | 76 | 211 | 4.0 | 8.0 | 0.00 | 0.00 | 0.00 | 68 | 1010.2 |
| 20260505002512 | 77 | 215 | 4.0 | 11.0 | 0.00 | 0.00 | 0.00 | 67 | 1010.0 |
| 20260505002006 | 77 | 196 | 4.0 | 11.0 | 0.00 | 0.00 | 0.00 | 66 | 1010.0 |
| 20260505001501 | 78 | 210 | 4.0 | 10.0 | 0.00 | 0.00 | 0.00 | 66 | 1010.0 |
| 20260505000949 | 78 | 181 | 4.0 | 9.0 | 0.00 | 0.00 | 0.00 | 66 | 1010.1 |
| 20260505000444 | 78 | 171 | 3.0 | 8.0 | 0.00 | 0.00 | 0.00 | 65 | 1010.1 |
| 20260504235937 | 78 | 157 | 3.0 | 9.0 | 0.00 | 0.00 | 0.00 | 66 | 1010.1 |
| 20260504235428 | 78 | 205 | 3.0 | 11.0 | 0.00 | 0.00 | 0.00 | 65 | 1010.2 |
| 20260504234921 | 78 | 170 | 3.0 | 11.0 | 0.00 | 0.00 | 0.00 | 66 | 1010.3 |
| 20260504234416 | 78 | 194 | 4.0 | 12.0 | 0.00 | 0.00 | 0.00 | 65 | 1010.4 |
| 20260504234132 | 78 | 200 | 3.0 | 12.0 | 0.00 | 0.00 | 0.00 | 65 | 1010.4 |
| 20260504233359 | 78 | 175 | 3.0 | 9.0 | 0.00 | 0.00 | 0.00 | 65 | 1010.4 |
| 20260504232854 | 79 | 163 | 3.0 | 9.0 | 0.00 | 0.00 | 0.00 | 65 | 1010.5 |
| 20260504232347 | 79 | 215 | 4.0 | 12.0 | 0.00 | 0.00 | 0.00 | 65 | 1010.5 |
| 20260504231844 | 78 | 169 | 5.0 | 13.0 | 0.00 | 0.00 | 0.00 | 65 | 1010.5 |
| 20260504231346 | 78 | 208 | 4.0 | 14.0 | 0.00 | 0.00 | 0.00 | 65 | 1010.6 |
| 20260504230842 | 78 | 217 | 4.0 | 14.0 | 0.00 | 0.00 | 0.00 | 65 | 1010.6 |
| 20260504230831 | 78 | 196 | 4.0 | 8.0 | 0.00 | 0.00 | 0.00 | 66 | 1010.7 |